| time (UTC) | temp F | wind direction | speed MPH | gust MPH | rain 1hr in | rain 24hr in | rain mn in | humidity % | barometer mb |
| 20260508174015 | 71 | 268 | 1.0 | 7.0 | 0.00 | 0.00 | 0.00 | 33 | 1011.2 |
| 20260508173514 | 71 | 344 | 2.0 | 5.0 | 0.00 | 0.00 | 0.00 | 37 | 1011.3 |
| 20260508173015 | 71 | 277 | 1.0 | 5.0 | 0.00 | 0.00 | 0.00 | 35 | 1011.7 |
| 20260508172515 | 71 | 281 | 0.0 | 6.0 | 0.00 | 0.00 | 0.00 | 36 | 1011.8 |
| 20260508172013 | 71 | 236 | 2.0 | 6.0 | 0.00 | 0.00 | 0.00 | 34 | 1011.8 |
| 20260508171517 | 72 | 95 | 0.0 | 6.0 | 0.00 | 0.00 | 0.00 | 35 | 1011.9 |
| 20260508171011 | 72 | 263 | 1.0 | 6.0 | 0.00 | 0.00 | 0.00 | 31 | 1012.1 |
| 20260508170511 | 73 | 19 | 1.0 | 4.0 | 0.00 | 0.00 | 0.00 | 34 | 1012.1 |
| 20260508170011 | 72 | 221 | 0.0 | 8.0 | 0.00 | 0.00 | 0.00 | 37 | 1012.1 |
| 20260508165509 | 72 | 294 | 1.0 | 8.0 | 0.00 | 0.00 | 0.00 | 35 | 1012.2 |
| 20260508165010 | 72 | 281 | 1.0 | 5.0 | 0.00 | 0.00 | 0.00 | 35 | 1012.3 |
| 20260508164518 | 72 | 308 | 2.0 | 7.0 | 0.00 | 0.00 | 0.00 | 35 | 1012.5 |
| 20260508164007 | 72 | 261 | 2.0 | 7.0 | 0.00 | 0.00 | 0.00 | 33 | 1012.5 |
| 20260508163504 | 72 | 270 | 1.0 | 4.0 | 0.00 | 0.00 | 0.00 | 36 | 1012.6 |
| 20260508163011 | 72 | 304 | 0.0 | 4.0 | 0.00 | 0.00 | 0.00 | 34 | 1012.7 |
| 20260508162502 | 71 | 233 | 1.0 | 3.0 | 0.00 | 0.00 | 0.00 | 38 | 1012.7 |
| 20260508162100 | 71 | 280 | 0.0 | 3.0 | 0.00 | 0.00 | 0.00 | 39 | 1012.7 |
| 20260508161607 | 71 | 236 | 0.0 | 4.0 | 0.00 | 0.00 | 0.00 | 36 | 1012.9 |
| 20260508161059 | 71 | 309 | 2.0 | 4.0 | 0.00 | 0.00 | 0.00 | 35 | 1013.0 |
| 20260508160556 | 70 | 32 | 1.0 | 5.0 | 0.00 | 0.00 | 0.00 | 37 | 1013.1 |
| 20260508160056 | 70 | 286 | 2.0 | 9.0 | 0.00 | 0.00 | 0.00 | 37 | 1013.0 |
| 20260508155555 | 70 | 277 | 2.0 | 9.0 | 0.00 | 0.00 | 0.00 | 37 | 1013.0 |
| 20260508155054 | 70 | 211 | 0.0 | 6.0 | 0.00 | 0.00 | 0.00 | 40 | 1013.1 |
| 20260508154553 | 69 | 242 | 0.0 | 5.0 | 0.00 | 0.00 | 0.00 | 37 | 1013.2 |
| 20260508154051 | 69 | 159 | 1.0 | 5.0 | 0.00 | 0.00 | 0.00 | 39 | 1013.2 |
| 20260508153552 | 69 | 269 | 1.0 | 4.0 | 0.00 | 0.00 | 0.00 | 38 | 1013.3 |
| 20260508153055 | 68 | 309 | 0.0 | 4.0 | 0.00 | 0.00 | 0.00 | 40 | 1013.4 |
| 20260508152549 | 68 | 290 | 0.0 | 5.0 | 0.00 | 0.00 | 0.00 | 40 | 1013.5 |
| 20260508152045 | 67 | 309 | 1.0 | 5.0 | 0.00 | 0.00 | 0.00 | 39 | 1013.5 |
| 20260508151545 | 67 | 292 | 1.0 | 4.0 | 0.00 | 0.00 | 0.00 | 40 | 1013.5 |
| 20260508151043 | 67 | 300 | 1.0 | 7.0 | 0.00 | 0.00 | 0.00 | 39 | 1013.6 |
| 20260508150541 | 66 | 55 | 1.0 | 7.0 | 0.00 | 0.00 | 0.00 | 40 | 1013.5 |
| 20260508150041 | 66 | 11 | 1.0 | 5.0 | 0.00 | 0.00 | 0.00 | 42 | 1013.6 |
| 20260508145539 | 65 | 186 | 1.0 | 7.0 | 0.00 | 0.00 | 0.00 | 43 | 1013.7 |
| 20260508145037 | 64 | 159 | 1.0 | 7.0 | 0.00 | 0.00 | 0.00 | 40 | 1013.7 |
| 20260508144541 | 64 | 323 | 1.0 | 6.0 | 0.00 | 0.00 | 0.00 | 42 | 1013.7 |
| 20260508144034 | 63 | 304 | 1.0 | 6.0 | 0.00 | 0.00 | 0.00 | 42 | 1013.6 |
| 20260508143534 | 63 | 41 | 0.0 | 4.0 | 0.00 | 0.00 | 0.00 | 44 | 1013.7 |
| 20260508143031 | 62 | 272 | 0.0 | 6.0 | 0.00 | 0.00 | 0.00 | 45 | 1013.9 |
| 20260508142529 | 62 | 267 | 1.0 | 6.0 | 0.00 | 0.00 | 0.00 | 45 | 1013.9 |
| 20260508142028 | 61 | 228 | 1.0 | 6.0 | 0.00 | 0.00 | 0.00 | 46 | 1013.9 |
| 20260508141526 | 60 | 275 | 1.0 | 6.0 | 0.00 | 0.00 | 0.00 | 48 | 1014.1 |
| 20260508141024 | 59 | 241 | 1.0 | 4.0 | 0.00 | 0.00 | 0.00 | 50 | 1014.2 |
| 20260508140523 | 59 | 228 | 0.0 | 5.0 | 0.00 | 0.00 | 0.00 | 50 | 1014.2 |
| 20260508140025 | 58 | 311 | 1.0 | 5.0 | 0.00 | 0.00 | 0.00 | 52 | 1014.3 |
| 20260508135521 | 57 | 251 | 0.0 | 3.0 | 0.00 | 0.00 | 0.00 | 53 | 1014.3 |
| 20260508135020 | 56 | 305 | 1.0 | 3.0 | 0.00 | 0.00 | 0.00 | 54 | 1014.3 |
| 20260508134517 | 55 | 319 | 1.0 | 3.0 | 0.00 | 0.00 | 0.00 | 56 | 1014.2 |
| 20260508134017 | 54 | 288 | 0.0 | 3.0 | 0.00 | 0.00 | 0.00 | 58 | 1014.3 |
| 20260508133517 | 53 | 324 | 0.0 | 3.0 | 0.00 | 0.00 | 0.00 | 59 | 1014.3 |
| 20260508133013 | 52 | 328 | 0.0 | 3.0 | 0.00 | 0.00 | 0.00 | 61 | 1014.4 |
| 20260508132514 | 52 | 311 | 0.0 | 2.0 | 0.00 | 0.00 | 0.00 | 62 | 1014.3 |
| 20260508132010 | 51 | 226 | 0.0 | 3.0 | 0.00 | 0.00 | 0.00 | 62 | 1014.3 |
| 20260508131509 | 51 | 223 | 1.0 | 3.0 | 0.00 | 0.00 | 0.00 | 62 | 1014.3 |
| 20260508131008 | 50 | 268 | 0.0 | 3.0 | 0.00 | 0.00 | 0.00 | 63 | 1014.3 |
| 20260508130507 | 49 | 233 | 0.0 | 2.0 | 0.00 | 0.00 | 0.00 | 63 | 1014.2 |
| 20260508130007 | 49 | 233 | 0.0 | 2.0 | 0.00 | 0.00 | 0.00 | 64 | 1014.2 |
| 20260508125508 | 48 | 232 | 0.0 | 2.0 | 0.00 | 0.00 | 0.00 | 64 | 1014.1 |
| 20260508125004 | 48 | 234 | 0.0 | 2.0 | 0.00 | 0.00 | 0.00 | 64 | 1014.1 |
| 20260508124502 | 47 | 128 | 0.0 | 2.0 | 0.00 | 0.00 | 0.00 | 65 | 1014.1 |
| 20260508124003 | 47 | 129 | 0.0 | 1.0 | 0.00 | 0.00 | 0.00 | 65 | 1014.2 |
| 20260508123601 | 47 | 129 | 0.0 | 1.0 | 0.00 | 0.00 | 0.00 | 66 | 1014.1 |
| 20260508123116 | 46 | 129 | 0.0 | 1.0 | 0.00 | 0.00 | 0.00 | 66 | 1014.0 |
| 20260508122558 | 46 | 129 | 0.0 | 4.0 | 0.00 | 0.00 | 0.00 | 66 | 1014.1 |
| 20260508122057 | 46 | 129 | 0.0 | 4.0 | 0.00 | 0.00 | 0.00 | 67 | 1014.2 |
| 20260508121608 | 46 | 275 | 0.0 | 0.0 | 0.00 | 0.00 | 0.00 | 68 | 1014.2 |
| 20260508121055 | 46 | 275 | 0.0 | 0.0 | 0.00 | 0.00 | 0.00 | 68 | 1014.3 |
| 20260508120553 | 46 | 275 | 0.0 | 0.0 | 0.00 | 0.00 | 0.00 | 68 | 1014.3 |
| 20260508120108 | 46 | 275 | 0.0 | 1.0 | 0.00 | 0.00 | 0.00 | 69 | 1014.3 |
| 20260508115553 | 45 | 275 | 0.0 | 1.0 | 0.00 | 0.00 | 0.00 | 69 | 1014.2 |
| 20260508115052 | 45 | 275 | 0.0 | 0.0 | 0.00 | 0.00 | 0.00 | 69 | 1014.3 |
| 20260508114559 | 45 | 275 | 0.0 | 0.0 | 0.00 | 0.00 | 0.00 | 70 | 1014.1 |
| 20260508114053 | 45 | 275 | 0.0 | 0.0 | 0.00 | 0.00 | 0.00 | 70 | 1014.1 |
| 20260508113553 | 45 | 275 | 0.0 | 0.0 | 0.00 | 0.00 | 0.00 | 70 | 1013.9 |
| 20260508113105 | 45 | 275 | 0.0 | 2.0 | 0.00 | 0.00 | 0.00 | 70 | 1013.9 |
| 20260508112549 | 44 | 275 | 0.0 | 2.0 | 0.00 | 0.00 | 0.00 | 71 | 1013.8 |
| 20260508112049 | 44 | 275 | 0.0 | 1.0 | 0.00 | 0.00 | 0.00 | 71 | 1013.7 |
| 20260508111551 | 44 | 275 | 0.0 | 0.0 | 0.00 | 0.00 | 0.00 | 72 | 1013.8 |
| 20260508111049 | 44 | 275 | 0.0 | 0.0 | 0.00 | 0.00 | 0.00 | 72 | 1013.7 |
| 20260508110548 | 44 | 275 | 0.0 | 0.0 | 0.00 | 0.00 | 0.00 | 72 | 1013.7 |
| 20260508110051 | 44 | 275 | 0.0 | 0.0 | 0.00 | 0.00 | 0.00 | 72 | 1013.7 |
| 20260508105549 | 44 | 275 | 0.0 | 0.0 | 0.00 | 0.00 | 0.00 | 72 | 1013.7 |
| 20260508105046 | 43 | 275 | 0.0 | 0.0 | 0.00 | 0.00 | 0.00 | 72 | 1013.7 |
| 20260508104645 | 43 | 275 | 0.0 | 0.0 | 0.00 | 0.00 | 0.00 | 72 | 1013.6 |
| 20260508104045 | 43 | 275 | 0.0 | 0.0 | 0.00 | 0.00 | 0.00 | 72 | 1013.7 |
| 20260508103546 | 43 | 275 | 0.0 | 0.0 | 0.00 | 0.00 | 0.00 | 72 | 1013.6 |
| 20260508103057 | 43 | 275 | 0.0 | 0.0 | 0.00 | 0.00 | 0.00 | 72 | 1013.5 |
| 20260508102544 | 43 | 275 | 0.0 | 0.0 | 0.00 | 0.00 | 0.00 | 72 | 1013.6 |
| 20260508102044 | 43 | 275 | 0.0 | 0.0 | 0.00 | 0.00 | 0.00 | 72 | 1013.6 |
| 20260508101552 | 43 | 275 | 0.0 | 0.0 | 0.00 | 0.00 | 0.00 | 72 | 1013.6 |
| 20260508101044 | 43 | 275 | 0.0 | 0.0 | 0.00 | 0.00 | 0.00 | 72 | 1013.6 |
| 20260508100543 | 43 | 276 | 0.0 | 0.0 | 0.00 | 0.00 | 0.00 | 72 | 1013.6 |
| 20260508100043 | 43 | 275 | 0.0 | 0.0 | 0.00 | 0.00 | 0.00 | 72 | 1013.6 |
| 20260508095543 | 43 | 275 | 0.0 | 0.0 | 0.00 | 0.00 | 0.00 | 72 | 1013.6 |
| 20260508095043 | 43 | 275 | 0.0 | 0.0 | 0.00 | 0.00 | 0.00 | 72 | 1013.6 |
| 20260508094543 | 43 | 275 | 0.0 | 0.0 | 0.00 | 0.00 | 0.00 | 71 | 1013.6 |
| 20260508094042 | 42 | 275 | 0.0 | 0.0 | 0.00 | 0.00 | 0.00 | 71 | 1013.6 |
| 20260508093546 | 42 | 275 | 0.0 | 0.0 | 0.00 | 0.00 | 0.00 | 71 | 1013.5 |
| 20260508093042 | 42 | 275 | 0.0 | 0.0 | 0.00 | 0.00 | 0.00 | 71 | 1013.5 |
| 20260508092542 | 42 | 275 | 0.0 | 0.0 | 0.00 | 0.00 | 0.00 | 71 | 1013.5 |
| 20260508092040 | 42 | 275 | 0.0 | 0.0 | 0.00 | 0.00 | 0.00 | 70 | 1013.5 |
| 20260508091541 | 42 | 275 | 0.0 | 0.0 | 0.00 | 0.00 | 0.00 | 70 | 1013.6 |
| 20260508091041 | 42 | 275 | 0.0 | 0.0 | 0.00 | 0.00 | 0.00 | 70 | 1013.6 |
| 20260508090540 | 42 | 275 | 0.0 | 0.0 | 0.00 | 0.00 | 0.00 | 70 | 1013.6 |
| 20260508090040 | 42 | 275 | 0.0 | 0.0 | 0.00 | 0.00 | 0.00 | 70 | 1013.6 |
| 20260508085539 | 42 | 276 | 0.0 | 0.0 | 0.00 | 0.00 | 0.00 | 69 | 1013.6 |
| 20260508085039 | 42 | 275 | 0.0 | 0.0 | 0.00 | 0.00 | 0.00 | 69 | 1013.5 |
| 20260508084539 | 42 | 275 | 0.0 | 0.0 | 0.00 | 0.00 | 0.00 | 69 | 1013.5 |
| 20260508084039 | 42 | 275 | 0.0 | 0.0 | 0.00 | 0.00 | 0.00 | 69 | 1013.5 |
| 20260508083539 | 42 | 275 | 0.0 | 0.0 | 0.00 | 0.00 | 0.00 | 69 | 1013.5 |
| 20260508083042 | 42 | 275 | 0.0 | 0.0 | 0.00 | 0.00 | 0.00 | 69 | 1013.5 |
| 20260508082538 | 42 | 275 | 0.0 | 0.0 | 0.00 | 0.00 | 0.00 | 69 | 1013.5 |
| 20260508082039 | 42 | 275 | 0.0 | 0.0 | 0.00 | 0.00 | 0.00 | 69 | 1013.5 |
| 20260508081538 | 42 | 275 | 0.0 | 0.0 | 0.00 | 0.00 | 0.00 | 69 | 1013.3 |
| 20260508081037 | 42 | 276 | 0.0 | 0.0 | 0.00 | 0.00 | 0.00 | 69 | 1013.3 |
| 20260508080537 | 42 | 275 | 0.0 | 0.0 | 0.00 | 0.00 | 0.00 | 69 | 1013.4 |
| 20260508080037 | 42 | 275 | 0.0 | 0.0 | 0.00 | 0.00 | 0.00 | 69 | 1013.5 |
| 20260508075538 | 42 | 276 | 0.0 | 0.0 | 0.00 | 0.00 | 0.00 | 69 | 1013.4 |
| 20260508075038 | 42 | 275 | 0.0 | 0.0 | 0.00 | 0.00 | 0.00 | 69 | 1013.4 |
| 20260508074536 | 42 | 275 | 0.0 | 0.0 | 0.00 | 0.00 | 0.00 | 69 | 1013.4 |
| 20260508074038 | 42 | 275 | 0.0 | 0.0 | 0.00 | 0.00 | 0.00 | 69 | 1013.3 |
| 20260508073534 | 42 | 275 | 0.0 | 0.0 | 0.00 | 0.00 | 0.00 | 69 | 1013.3 |
| 20260508073040 | 42 | 275 | 0.0 | 0.0 | 0.00 | 0.00 | 0.00 | 69 | 1013.4 |
| 20260508072535 | 42 | 275 | 0.0 | 0.0 | 0.00 | 0.00 | 0.00 | 69 | 1013.3 |
| 20260508072034 | 42 | 275 | 0.0 | 0.0 | 0.00 | 0.00 | 0.00 | 69 | 1013.4 |
| 20260508071535 | 42 | 275 | 0.0 | 0.0 | 0.00 | 0.00 | 0.00 | 69 | 1013.4 |
| 20260508071133 | 42 | 275 | 0.0 | 0.0 | 0.00 | 0.00 | 0.00 | 69 | 1013.4 |
| 20260508070533 | 42 | 275 | 0.0 | 0.0 | 0.00 | 0.00 | 0.00 | 69 | 1013.3 |
| 20260508070033 | 42 | 275 | 0.0 | 0.0 | 0.00 | 0.00 | 0.00 | 69 | 1013.5 |
| 20260508065532 | 42 | 275 | 0.0 | 0.0 | 0.00 | 0.00 | 0.00 | 69 | 1013.5 |
| 20260508065035 | 42 | 275 | 0.0 | 0.0 | 0.00 | 0.00 | 0.00 | 69 | 1013.6 |
| 20260508064538 | 43 | 275 | 0.0 | 0.0 | 0.00 | 0.00 | 0.00 | 68 | 1013.8 |
| 20260508064031 | 43 | 275 | 0.0 | 0.0 | 0.00 | 0.00 | 0.00 | 68 | 1014.0 |
| 20260508063531 | 43 | 275 | 0.0 | 0.0 | 0.00 | 0.00 | 0.00 | 68 | 1014.0 |
| 20260508063039 | 43 | 275 | 0.0 | 0.0 | 0.00 | 0.00 | 0.00 | 67 | 1013.9 |
| 20260508062530 | 43 | 275 | 0.0 | 0.0 | 0.00 | 0.00 | 0.00 | 67 | 1014.0 |
| 20260508062028 | 43 | 275 | 0.0 | 0.0 | 0.00 | 0.00 | 0.00 | 67 | 1014.1 |
| 20260508061530 | 43 | 275 | 0.0 | 0.0 | 0.00 | 0.00 | 0.00 | 67 | 1014.1 |
| 20260508061027 | 43 | 275 | 0.0 | 0.0 | 0.00 | 0.00 | 0.00 | 67 | 1014.1 |
| 20260508060527 | 43 | 275 | 0.0 | 0.0 | 0.00 | 0.00 | 0.00 | 67 | 1014.2 |
| 20260508060027 | 43 | 275 | 0.0 | 0.0 | 0.00 | 0.00 | 0.00 | 67 | 1014.2 |
| 20260508055526 | 43 | 275 | 0.0 | 0.0 | 0.00 | 0.00 | 0.00 | 67 | 1014.2 |
| 20260508055026 | 43 | 275 | 0.0 | 0.0 | 0.00 | 0.00 | 0.00 | 67 | 1014.2 |
| 20260508054525 | 43 | 275 | 0.0 | 0.0 | 0.00 | 0.00 | 0.00 | 66 | 1014.2 |
| 20260508054025 | 43 | 275 | 0.0 | 0.0 | 0.00 | 0.00 | 0.00 | 66 | 1014.3 |
| 20260508053524 | 44 | 275 | 0.0 | 0.0 | 0.00 | 0.00 | 0.00 | 66 | 1014.2 |
| 20260508053024 | 44 | 275 | 0.0 | 0.0 | 0.00 | 0.00 | 0.00 | 66 | 1014.1 |
| 20260508052525 | 44 | 275 | 0.0 | 0.0 | 0.00 | 0.00 | 0.00 | 66 | 1014.1 |
| 20260508052021 | 44 | 275 | 0.0 | 0.0 | 0.00 | 0.00 | 0.00 | 66 | 1014.1 |
| 20260508051622 | 44 | 275 | 0.0 | 0.0 | 0.00 | 0.00 | 0.00 | 66 | 1014.0 |
| 20260508051020 | 44 | 275 | 0.0 | 0.0 | 0.00 | 0.00 | 0.00 | 66 | 1014.0 |
| 20260508050520 | 44 | 275 | 0.0 | 0.0 | 0.00 | 0.00 | 0.00 | 66 | 1014.0 |
| 20260508050030 | 44 | 275 | 0.0 | 0.0 | 0.00 | 0.00 | 0.00 | 66 | 1013.9 |
| 20260508045519 | 44 | 275 | 0.0 | 0.0 | 0.00 | 0.00 | 0.00 | 66 | 1013.9 |
| 20260508045019 | 45 | 275 | 0.0 | 0.0 | 0.00 | 0.00 | 0.00 | 66 | 1014.0 |
| 20260508044518 | 45 | 275 | 0.0 | 0.0 | 0.00 | 0.00 | 0.00 | 66 | 1014.0 |
| 20260508044018 | 45 | 275 | 0.0 | 0.0 | 0.00 | 0.00 | 0.00 | 65 | 1014.1 |
| 20260508043516 | 45 | 275 | 0.0 | 0.0 | 0.00 | 0.00 | 0.00 | 64 | 1013.9 |
| 20260508043016 | 45 | 275 | 0.0 | 0.0 | 0.00 | 0.00 | 0.00 | 64 | 1014.0 |
| 20260508042516 | 45 | 275 | 0.0 | 0.0 | 0.00 | 0.00 | 0.00 | 64 | 1014.0 |
| 20260508042020 | 45 | 275 | 0.0 | 0.0 | 0.00 | 0.00 | 0.00 | 63 | 1014.0 |
| 20260508041514 | 45 | 275 | 0.0 | 0.0 | 0.00 | 0.00 | 0.00 | 63 | 1013.9 |
| 20260508041014 | 45 | 275 | 0.0 | 0.0 | 0.00 | 0.00 | 0.00 | 63 | 1013.8 |
| 20260508040517 | 45 | 275 | 0.0 | 0.0 | 0.00 | 0.00 | 0.00 | 63 | 1013.7 |
| 20260508040013 | 45 | 275 | 0.0 | 0.0 | 0.00 | 0.00 | 0.00 | 63 | 1013.9 |
| 20260508035512 | 45 | 275 | 0.0 | 0.0 | 0.00 | 0.00 | 0.00 | 63 | 1013.7 |
| 20260508035012 | 45 | 275 | 0.0 | 0.0 | 0.00 | 0.00 | 0.00 | 62 | 1013.7 |
| 20260508034514 | 45 | 275 | 0.0 | 0.0 | 0.00 | 0.00 | 0.00 | 62 | 1013.9 |
| 20260508034012 | 45 | 275 | 0.0 | 0.0 | 0.00 | 0.00 | 0.00 | 61 | 1013.9 |
| 20260508033511 | 46 | 275 | 0.0 | 0.0 | 0.00 | 0.00 | 0.00 | 61 | 1014.0 |
| 20260508033012 | 46 | 275 | 0.0 | 0.0 | 0.00 | 0.00 | 0.00 | 61 | 1013.9 |
| 20260508032511 | 46 | 275 | 0.0 | 0.0 | 0.00 | 0.00 | 0.00 | 61 | 1013.9 |
| 20260508032010 | 46 | 275 | 0.0 | 0.0 | 0.00 | 0.00 | 0.00 | 60 | 1013.9 |
| 20260508031510 | 46 | 275 | 0.0 | 0.0 | 0.00 | 0.00 | 0.00 | 60 | 1013.9 |
| 20260508031010 | 46 | 275 | 0.0 | 0.0 | 0.00 | 0.00 | 0.00 | 60 | 1013.9 |
| 20260508030510 | 46 | 275 | 0.0 | 0.0 | 0.00 | 0.00 | 0.00 | 60 | 1013.9 |
| 20260508030010 | 47 | 275 | 0.0 | 0.0 | 0.00 | 0.00 | 0.00 | 60 | 1013.9 |
| 20260508025510 | 47 | 275 | 0.0 | 0.0 | 0.00 | 0.00 | 0.00 | 59 | 1014.0 |
| 20260508025010 | 47 | 275 | 0.0 | 0.0 | 0.00 | 0.00 | 0.00 | 59 | 1013.9 |
| 20260508024510 | 47 | 275 | 0.0 | 0.0 | 0.00 | 0.00 | 0.00 | 59 | 1013.9 |
| 20260508024010 | 47 | 278 | 0.0 | 0.0 | 0.00 | 0.00 | 0.00 | 59 | 1013.8 |
| 20260508023510 | 47 | 278 | 0.0 | 0.0 | 0.00 | 0.00 | 0.00 | 58 | 1013.7 |
| 20260508023009 | 48 | 278 | 0.0 | 0.0 | 0.00 | 0.00 | 0.00 | 58 | 1013.6 |
| 20260508022511 | 48 | 278 | 0.0 | 0.0 | 0.00 | 0.00 | 0.00 | 58 | 1013.7 |
| 20260508022009 | 48 | 278 | 0.0 | 0.0 | 0.00 | 0.00 | 0.00 | 57 | 1013.8 |
| 20260508021508 | 48 | 278 | 0.0 | 0.0 | 0.00 | 0.00 | 0.00 | 57 | 1013.6 |
| 20260508021011 | 49 | 278 | 0.0 | 0.0 | 0.00 | 0.00 | 0.00 | 57 | 1013.7 |
| 20260508020508 | 49 | 278 | 0.0 | 0.0 | 0.00 | 0.00 | 0.00 | 56 | 1013.8 |
| 20260508020008 | 49 | 278 | 0.0 | 0.0 | 0.00 | 0.01 | 0.00 | 56 | 1013.7 |
| 20260508015511 | 49 | 278 | 0.0 | 0.0 | 0.00 | 0.01 | 0.00 | 56 | 1013.7 |
| 20260508015008 | 50 | 278 | 0.0 | 0.0 | 0.00 | 0.01 | 0.00 | 55 | 1013.7 |
| 20260508014511 | 50 | 278 | 0.0 | 0.0 | 0.00 | 0.01 | 0.00 | 55 | 1013.7 |
| 20260508014008 | 50 | 278 | 0.0 | 0.0 | 0.00 | 0.01 | 0.00 | 54 | 1013.7 |
| 20260508013507 | 51 | 278 | 0.0 | 0.0 | 0.00 | 0.01 | 0.00 | 54 | 1013.7 |
| 20260508013007 | 51 | 278 | 0.0 | 0.0 | 0.00 | 0.01 | 0.00 | 52 | 1013.7 |
| 20260508012510 | 51 | 278 | 0.0 | 0.0 | 0.00 | 0.01 | 0.00 | 52 | 1013.7 |
| 20260508012007 | 52 | 278 | 0.0 | 0.0 | 0.00 | 0.01 | 0.00 | 52 | 1013.6 |
| 20260508011507 | 52 | 278 | 0.0 | 0.0 | 0.00 | 0.01 | 0.00 | 52 | 1013.6 |
| 20260508011006 | 53 | 278 | 0.0 | 0.0 | 0.00 | 0.01 | 0.00 | 51 | 1013.6 |
| 20260508010506 | 53 | 278 | 0.0 | 0.0 | 0.00 | 0.01 | 0.00 | 50 | 1013.5 |
| 20260508010009 | 53 | 278 | 0.0 | 0.0 | 0.00 | 0.01 | 0.00 | 50 | 1013.5 |
| 20260508005510 | 54 | 278 | 0.0 | 0.0 | 0.00 | 0.01 | 0.00 | 49 | 1013.5 |
| 20260508005007 | 54 | 278 | 0.0 | 0.0 | 0.00 | 0.01 | 0.00 | 48 | 1013.4 |
| 20260508004509 | 55 | 278 | 0.0 | 0.0 | 0.00 | 0.01 | 0.00 | 48 | 1013.5 |
| 20260508004006 | 55 | 278 | 0.0 | 0.0 | 0.00 | 0.01 | 0.00 | 46 | 1013.4 |
| 20260508003505 | 55 | 278 | 0.0 | 0.0 | 0.00 | 0.01 | 0.00 | 44 | 1013.4 |
| 20260508003006 | 56 | 278 | 0.0 | 0.0 | 0.00 | 0.01 | 0.00 | 43 | 1013.3 |
| 20260508002505 | 56 | 278 | 0.0 | 0.0 | 0.00 | 0.01 | 0.00 | 42 | 1013.3 |
| 20260508002005 | 56 | 278 | 0.0 | 1.0 | 0.00 | 0.01 | 0.00 | 41 | 1013.3 |
| 20260508001512 | 56 | 278 | 0.0 | 1.0 | 0.00 | 0.01 | 0.00 | 39 | 1013.2 |
| 20260508001005 | 56 | 320 | 0.0 | 0.0 | 0.00 | 0.01 | 0.00 | 38 | 1013.3 |
| 20260508000508 | 57 | 320 | 0.0 | 0.0 | 0.00 | 0.01 | 0.00 | 37 | 1013.3 |
| 20260508000005 | 57 | 320 | 0.0 | 0.0 | 0.00 | 0.01 | 0.00 | 37 | 1013.2 |
| 20260507235505 | 57 | 320 | 0.0 | 0.0 | 0.00 | 0.01 | 0.00 | 37 | 1013.2 |
| 20260507235006 | 57 | 320 | 0.0 | 0.0 | 0.00 | 0.01 | 0.00 | 37 | 1013.2 |
| 20260507234505 | 57 | 320 | 0.0 | 0.0 | 0.00 | 0.01 | 0.00 | 37 | 1013.1 |
| 20260507234051 | 57 | 320 | 0.0 | 1.0 | 0.00 | 0.01 | 0.00 | 37 | 1013.1 |
| 20260507233504 | 57 | 320 | 0.0 | 2.0 | 0.00 | 0.01 | 0.00 | 37 | 1013.0 |
| 20260507233008 | 58 | 320 | 0.0 | 2.0 | 0.00 | 0.01 | 0.00 | 37 | 1013.0 |
| 20260507232504 | 58 | 318 | 0.0 | 2.0 | 0.00 | 0.01 | 0.00 | 35 | 1012.9 |
| 20260507232002 | 58 | 321 | 0.0 | 0.0 | 0.00 | 0.01 | 0.00 | 35 | 1012.8 |
| 20260507231502 | 58 | 321 | 0.0 | 0.0 | 0.00 | 0.01 | 0.00 | 36 | 1012.8 |
| 20260507231001 | 58 | 321 | 0.0 | 0.0 | 0.00 | 0.01 | 0.00 | 35 | 1012.9 |
| 20260507230503 | 58 | 320 | 0.0 | 0.0 | 0.00 | 0.01 | 0.00 | 36 | 1012.9 |
| 20260507230005 | 58 | 319 | 0.0 | 0.0 | 0.00 | 0.02 | 0.00 | 37 | 1012.9 |
| 20260507225501 | 59 | 320 | 0.0 | 0.0 | 0.00 | 0.02 | 0.00 | 35 | 1012.9 |
| 20260507225001 | 59 | 320 | 0.0 | 1.0 | 0.00 | 0.02 | 0.00 | 38 | 1013.0 |
| 20260507224503 | 59 | 319 | 0.0 | 2.0 | 0.00 | 0.02 | 0.00 | 37 | 1013.0 |
| 20260507224005 | 59 | 320 | 0.0 | 2.0 | 0.00 | 0.02 | 0.00 | 39 | 1012.9 |
| 20260507223501 | 59 | 325 | 0.0 | 2.0 | 0.00 | 0.02 | 0.00 | 36 | 1013.0 |
| 20260507223001 | 59 | 312 | 0.0 | 2.0 | 0.00 | 0.02 | 0.00 | 37 | 1013.0 |
| 20260507222601 | 60 | 311 | 0.0 | 2.0 | 0.00 | 0.02 | 0.00 | 40 | 1013.0 |
| 20260507222100 | 60 | 311 | 0.0 | 2.0 | 0.00 | 0.02 | 0.00 | 38 | 1012.9 |
| 20260507221559 | 60 | 311 | 1.0 | 2.0 | 0.00 | 0.02 | 0.00 | 40 | 1013.0 |
| 20260507221059 | 60 | 311 | 0.0 | 3.0 | 0.00 | 0.02 | 0.00 | 36 | 1013.0 |
| 20260507220601 | 60 | 311 | 0.0 | 4.0 | 0.00 | 0.02 | 0.00 | 37 | 1013.2 |
| 20260507220059 | 61 | 311 | 1.0 | 4.0 | 0.00 | 0.02 | 0.00 | 34 | 1013.3 |
| 20260507215601 | 61 | 321 | 1.0 | 3.0 | 0.00 | 0.02 | 0.00 | 32 | 1013.1 |
| 20260507215058 | 61 | 321 | 1.0 | 3.0 | 0.00 | 0.02 | 0.00 | 32 | 1013.2 |
| 20260507214602 | 62 | 332 | 1.0 | 3.0 | 0.00 | 0.02 | 0.00 | 31 | 1013.1 |
| 20260507214058 | 62 | 336 | 0.0 | 3.0 | 0.00 | 0.02 | 0.00 | 35 | 1013.2 |
| 20260507213559 | 62 | 309 | 1.0 | 4.0 | 0.00 | 0.02 | 0.00 | 36 | 1013.1 |
| 20260507213059 | 63 | 5 | 1.0 | 3.0 | 0.00 | 0.02 | 0.00 | 34 | 1013.1 |
| 20260507212559 | 63 | 46 | 0.0 | 3.0 | 0.00 | 0.02 | 0.00 | 33 | 1013.1 |
| 20260507212057 | 63 | 51 | 0.0 | 3.0 | 0.00 | 0.02 | 0.00 | 31 | 1013.1 |
| 20260507211558 | 63 | 51 | 1.0 | 4.0 | 0.00 | 0.02 | 0.00 | 28 | 1013.1 |
| 20260507211057 | 63 | 290 | 1.0 | 4.0 | 0.00 | 0.02 | 0.00 | 31 | 1013.1 |
| 20260507210600 | 63 | 86 | 0.0 | 3.0 | 0.00 | 0.02 | 0.00 | 32 | 1013.1 |
| 20260507210057 | 63 | 321 | 1.0 | 3.0 | 0.00 | 0.02 | 0.00 | 32 | 1013.1 |
| 20260507205557 | 63 | 317 | 0.0 | 4.0 | 0.00 | 0.02 | 0.00 | 31 | 1013.0 |
| 20260507205056 | 63 | 331 | 0.0 | 4.0 | 0.00 | 0.02 | 0.00 | 34 | 1013.1 |
| 20260507204559 | 63 | 338 | 1.0 | 3.0 | 0.00 | 0.02 | 0.00 | 33 | 1013.0 |
| 20260507204056 | 63 | 336 | 1.0 | 4.0 | 0.00 | 0.02 | 0.00 | 34 | 1013.1 |
| 20260507203556 | 63 | 311 | 2.0 | 5.0 | 0.00 | 0.02 | 0.00 | 32 | 1013.0 |
| 20260507203055 | 62 | 342 | 1.0 | 5.0 | 0.00 | 0.02 | 0.00 | 31 | 1013.1 |
| 20260507202557 | 63 | 315 | 0.0 | 4.0 | 0.00 | 0.02 | 0.00 | 32 | 1013.1 |
| 20260507202054 | 62 | 315 | 1.0 | 5.0 | 0.00 | 0.02 | 0.00 | 32 | 1013.1 |
| 20260507201559 | 63 | 11 | 2.0 | 5.0 | 0.00 | 0.02 | 0.00 | 33 | 1013.0 |
| 20260507201153 | 63 | 28 | 1.0 | 3.0 | 0.00 | 0.02 | 0.00 | 28 | 1013.1 |
| 20260507200552 | 63 | 336 | 1.0 | 3.0 | 0.00 | 0.02 | 0.00 | 32 | 1013.3 |
| 20260507200056 | 63 | 341 | 1.0 | 4.0 | 0.00 | 0.03 | 0.00 | 31 | 1013.3 |
| 20260507195551 | 63 | 288 | 1.0 | 4.0 | 0.00 | 0.03 | 0.00 | 32 | 1013.2 |
| 20260507195051 | 64 | 316 | 2.0 | 4.0 | 0.00 | 0.03 | 0.00 | 32 | 1013.3 |
| 20260507194550 | 63 | 180 | 0.0 | 5.0 | 0.00 | 0.03 | 0.00 | 42 | 1013.3 |
| 20260507194049 | 63 | 316 | 1.0 | 4.0 | 0.00 | 0.03 | 0.00 | 30 | 1013.3 |
| 20260507193549 | 63 | 339 | 1.0 | 4.0 | 0.00 | 0.03 | 0.00 | 33 | 1013.4 |
| 20260507193051 | 63 | 25 | 0.0 | 5.0 | 0.00 | 0.03 | 0.00 | 32 | 1013.3 |
| 20260507192546 | 63 | 335 | 1.0 | 5.0 | 0.00 | 0.03 | 0.00 | 36 | 1013.4 |
| 20260507192049 | 63 | 230 | 1.0 | 3.0 | 0.00 | 0.03 | 0.00 | 38 | 1013.4 |
| 20260507191552 | 63 | 229 | 1.0 | 5.0 | 0.00 | 0.03 | 0.00 | 34 | 1013.4 |
| 20260507191044 | 62 | 223 | 1.0 | 8.0 | 0.00 | 0.03 | 0.00 | 41 | 1013.4 |
| 20260507190544 | 62 | 66 | 1.0 | 8.0 | 0.00 | 0.03 | 0.00 | 32 | 1013.4 |
| 20260507190046 | 62 | 324 | 1.0 | 5.0 | 0.00 | 0.04 | 0.00 | 34 | 1013.5 |
| 20260507185543 | 62 | 338 | 1.0 | 4.0 | 0.00 | 0.04 | 0.00 | 34 | 1013.5 |
| 20260507185043 | 62 | 360 | 1.0 | 5.0 | 0.00 | 0.04 | 0.00 | 32 | 1013.6 |
| 20260507184545 | 62 | 286 | 1.0 | 5.0 | 0.00 | 0.04 | 0.00 | 31 | 1013.6 |
| 20260507184043 | 63 | 338 | 1.0 | 4.0 | 0.00 | 0.04 | 0.00 | 34 | 1013.5 |
| 20260507183541 | 62 | 274 | 2.0 | 4.0 | 0.00 | 0.04 | 0.00 | 32 | 1013.5 |
| 20260507183043 | 63 | 36 | 1.0 | 4.0 | 0.00 | 0.04 | 0.00 | 33 | 1013.7 |
| 20260507182541 | 63 | 315 | 1.0 | 7.0 | 0.00 | 0.04 | 0.00 | 34 | 1013.7 |
| 20260507182041 | 63 | 292 | 3.0 | 7.0 | 0.00 | 0.04 | 0.00 | 32 | 1013.6 |
| 20260507181540 | 63 | 233 | 1.0 | 3.0 | 0.00 | 0.04 | 0.00 | 40 | 1013.5 |
| 20260507181038 | 62 | 230 | 1.0 | 3.0 | 0.00 | 0.04 | 0.00 | 35 | 1013.5 |
| 20260507180538 | 62 | 339 | 1.0 | 5.0 | 0.00 | 0.04 | 0.00 | 33 | 1013.7 |
| 20260507180039 | 61 | 317 | 2.0 | 5.0 | 0.00 | 0.06 | 0.00 | 33 | 1013.8 |
| 20260507175538 | 61 | 347 | 1.0 | 8.0 | 0.00 | 0.06 | 0.00 | 33 | 1014.0 |
| 20260507175037 | 61 | 317 | 3.0 | 8.0 | 0.00 | 0.06 | 0.00 | 31 | 1014.1 |
| 20260507174544 | 61 | 321 | 2.0 | 7.0 | 0.00 | 0.06 | 0.00 | 35 | 1014.0 |